Regional Weather Roundup
Issued by NWS

Home | Current Version | Previous Version | Text Only | Print | Product List | Glossary On
Versions: 1 2 3 4 5 6 7 8 9 10 11 12 13 14 15 16 17 18 19 20 21 22 23 24 25 26 27 28 29 30 31 32 33 34 35 36 37 38 39 40 41 42 43 44 45 46 47 48 49 50
000
ASUS43 KDMX 221707
RWRIA

WEATHER ROUNDUP FOR IOWA
NATIONAL WEATHER SERVICE DES MOINES IA
1200 PM CDT FRI MAY 22 2015

NOTE: "FAIR" INDICATES FEW OR NO CLOUDS BELOW 12,000 FEET WITH NO
SIGNIFICANT WEATHER AND/OR OBSTRUCTIONS TO VISIBILITY.

* - THESE STATIONS ARE NOT NWS STATIONS...THUS NOT UNDER NWS
QUALITY CONTROL.  THEY ALSO DO NOT REPORT WEATHER SUCH
AS PRECIPITATION OR FOG.

IAZ001>003-012>014-020>022-031>034-043>046-221800-
   NORTHWEST IOWA

CITY           SKY/WX    TMP DP  RH WIND       PRES   REMARKS
CARROLL *      SUNNY     72  34  25 VRB5G12   30.22S
CHEROKEE *     MOSUNNY   72  39  30 CALM      30.22S
DENISON *      SUNNY     70  41  35 CALM      30.21R
LE MARS *      SUNNY     72  37  28 CALM      30.22S
ORANGE CITY *  SUNNY     70  37  30 CALM      30.22R
SHELDON *      SUNNY     70  37  30 CALM      30.20F
SIOUX CITY     PTSUNNY   71  41  33 S5        30.22S
SPENCER        SUNNY     71  33  24 CALM      30.22S
STORM LAKE *   SUNNY     72  34  25 NE5       30.23S
$$

IAZ055>058-069>071-079>083-090>094-221800-
   SOUTHWEST IOWA

CITY           SKY/WX    TMP DP  RH WIND       PRES   REMARKS
ATLANTIC *     SUNNY     72  41  33 VRB3      30.23S
AUDUBON *      SUNNY     72  37  28 CALM      30.24S
CLARINDA *     SUNNY     66  48  52 CALM      30.26F
COUNCIL BLFS * SUNNY     66  46  48 CALM      30.24F
CRESTON *        N/A    N/A N/A N/A MISG        N/A
HARLAN  *      SUNNY     72  41  33 SW6       30.26S
LAMONI         CLOUDY    70  50  49 W5        30.24S
RED OAK *      SUNNY     68  48  49 SW5       30.24F
SHENANDOAH *   SUNNY     68  46  45 CALM      30.25S
$$

IAZ047>049-059>061-072>074-084-221800-
   CENTRAL IOWA

CITY           SKY/WX    TMP DP  RH WIND       PRES   REMARKS
AMES           SUNNY     72  35  25 CALM      30.22S
ANKENY *       SUNNY     72  39  30 CALM      30.23R
CHARITON *     SUNNY     70  41  35 CALM      30.24S
DES MOINES     CLOUDY    74  41  30 S6        30.23R
GRINNELL*      SUNNY     72  34  25 E5        30.23R
KNOXVILLE *    SUNNY     72  34  25 CALM      30.22S
MARSHALLTOWN   SUNNY     71  37  28 CALM      30.21R
PELLA *        MOSUNNY   73  48  40 W3        30.24R
PERRY *          N/A     72  36  26 CALM      30.23S
$$

IAZ004>006-015-016-023>025-035-036-221800-
   NORTH CENTRAL IOWA

CITY           SKY/WX    TMP DP  RH WIND       PRES   REMARKS
ALGONA *       SUNNY     70  36  28 E6        30.22S
CLARION *      SUNNY     72  32  23 VRB6      30.22R
ESTHERVILLE    SUNNY     69  33  26 CALM      30.21F
FORT DODGE *   SUNNY     70  43  37 W6        30.24R
MASON CITY     SUNNY     71  36  27 VRB6      30.22F
FOREST CITY *  SUNNY     68  37  32 NW5       30.21S
IOWA FALLS *     N/A     70  32  24 CALM      30.23R
$$

IAZ007>011-017>019-026>030-037>042-050>054-066-221800-
   NORTHEAST IOWA

CITY           SKY/WX    TMP DP  RH WIND       PRES   REMARKS
CEDAR RAPIDS   SUNNY     72  37  28 N7        30.21R
CHARLES CITY * SUNNY     72  32  23 VRB7      30.22S
CLINTON *      SUNNY     70  45  40 S3        30.23S
DECORAH *      SUNNY     68  36  30 CALM      30.21S
DUBUQUE        SUNNY     68  46  45 E3        30.22S
MONTICELLO *   SUNNY     70  37  30 NW7       30.21R
OELWEIN *      SUNNY     72  34  25 NW9G15    30.21S
WATERLOO       SUNNY     72  39  30 NE5       30.21R
$$

IAZ064-065-067-068-078-221800-
   EAST CENTRAL IOWA

CITY           SKY/WX    TMP DP  RH WIND       PRES   REMARKS
DAVENPORT      SUNNY     74  36  25 MISG      30.21S
IOWA CITY      SUNNY     72  37  28 VRB5      30.23R
MT. PLEASANT * SUNNY     73  34  23 CALM      30.23R
MUSCATINE *    SUNNY     73  34  23 CALM      30.21S
QUAD CITIES    SUNNY     75  41  29 W6        30.20S
$$

IAZ062-063-075>077-085>089-095>099-221800-
   SOUTHEAST IOWA

CITY           SKY/WX    TMP DP  RH WIND       PRES   REMARKS
BURLINGTON     SUNNY     73  41  31 VRB3      30.22R
FAIRFIELD *    SUNNY     72  39  30 W6        30.23R
FORT MADISON * SUNNY     72  45  37 S5        30.24R
KEOKUK *       SUNNY     72  50  46 SW7       30.23R
OSKALOOSA *      N/A     72  34  25 N3        30.23R
CENTERVILLE *  SUNNY     72  72 100 CALM      30.25S
OTTUMWA        SUNNY     72  41  32 W7        30.23R
WASHINGTON *   SUNNY     73  36  25 CALM      30.23S
$$

ABBREVIATIONS USED IN REMARKS
   TC - TEMPERATURES IN CELSIUS
  WCI - WIND CHILL INDEX
   HX - HEAT INDEX
  VSB - VISIBILITY
$$



USA.gov is the U.S. government's official web portal to all federal, state and local government web resources and services.